GW0115 Weather Reports


time (UTC)temp
C
wind
direction
speed
KPH
gust
KPH
rain 1hr
cm
rain 24hr
cm
rain mn
cm
humidity
%
barometer
mb
20260905220056 20 0 0.0 0.0 0.00 0.00 0.00 76 1012.5
20260905214602 20 0 0.0 0.0 0.00 0.00 0.00 75 1012.2
20260905213105 20 0 0.0 6.4 0.00 0.00 0.00 74 1012.1
20260905211556 21 0 0.0 0.0 0.00 0.00 0.00 76 1012.0
20260905210104 21 0 0.0 9.7 0.00 0.00 0.00 74 1011.8
20260905204552 21 0 0.0 6.4 0.00 0.00 0.00 73 1011.7
20260905203100 21 0 0.0 8.0 0.00 0.00 0.00 73 1011.6
20260905201556 21 0 0.0 9.7 0.00 0.00 0.00 74 1011.6
20260905200126 21 0 0.0 9.7 0.00 0.00 0.00 72 1011.6
20260905194553 22 0 0.0 4.8 0.00 0.00 0.00 70 1011.6
20260905193059 21 0 0.0 8.0 0.00 0.00 0.00 71 1011.5
20260905191554 21 0 0.0 1.6 0.00 0.00 0.00 70 1011.5
20260905190056 22 345 0.0 6.4 0.00 0.00 0.00 68 1011.6
20260905184603 22 0 0.0 9.7 0.00 0.00 0.00 71 1011.6
20260905183057 23 0 0.0 14.5 0.00 0.00 0.00 69 1011.6
20260905181555 22 0 1.6 11.3 0.00 0.00 0.00 69 1011.6
20260905180114 21 0 0.0 6.4 0.00 0.00 0.00 72 1011.7
20260905174557 21 0 0.0 11.3 0.00 0.00 0.00 74 1011.7
20260905173113 21 0 0.0 9.7 0.00 0.00 0.00 74 1011.8
20260905171556 21 0 0.0 16.1 0.00 0.00 0.00 74 1011.8
20260905164611 21 0 0.0 12.9 0.00 0.00 0.00 76 1011.9
20260905163104 21 0 1.6 12.9 0.00 0.00 0.00 77 1011.9
20260905161600 21 0 0.0 3.2 0.00 0.00 0.00 80 1012.2
20260905160107 20 0 0.0 9.7 0.00 0.00 0.00 81 1012.2
20260905154604 20 0 0.0 9.7 0.00 0.00 0.00 83 1012.2
20260905153053 19 0 0.0 6.4 0.00 0.00 0.00 85 1012.4
20260905151601 19 0 0.0 3.2 0.00 0.00 0.00 86 1012.6
20260905150055 18 0 0.0 0.0 0.00 0.00 0.00 90 1012.5
20260905144555 18 0 0.0 0.0 0.00 0.00 0.00 88 1012.4
20260905143052 18 0 0.0 0.0 0.00 0.00 0.00 85 1012.3
20260905141554 18 0 0.0 0.0 0.00 0.00 0.00 86 1012.2
20260905134606 18 0 0.0 0.0 0.00 0.00 0.00 86 1012.4
20260905133100 18 0 0.0 0.0 0.00 0.00 0.00 86 1012.3
20260905131601 17 0 0.0 0.0 0.00 0.00 0.00 88 1012.1
20260905130101 17 0 0.0 0.0 0.00 0.00 0.00 89 1012.0
20260905124606 17 0 0.0 0.0 0.00 0.00 0.00 90 1012.0
20260905123102 16 0 0.0 0.0 0.00 0.00 0.00 92 1011.7
20260905121606 16 0 0.0 0.0 0.00 0.00 0.00 93 1011.6
20260905120107 15 0 0.0 0.0 0.00 0.00 0.00 93 1011.4
20260905114609 15 0 0.0 0.0 0.00 0.00 0.00 93 1011.3
20260905113102 15 0 0.0 0.0 0.00 0.00 0.00 93 1011.3
20260905111651 14 0 0.0 0.0 0.00 0.00 0.00 93 1011.2
20260905104601 14 0 0.0 0.0 0.00 0.00 0.00 92 1010.9
20260905103105 14 0 0.0 0.0 0.00 0.00 0.00 92 1010.8
20260905101602 14 0 0.0 0.0 0.00 0.00 0.00 93 1010.8
20260905100116 14 0 0.0 0.0 0.00 0.00 0.00 93 1010.7
20260905094608 14 0 0.0 0.0 0.00 0.00 0.00 92 1010.7
20260905093123 15 0 0.0 0.0 0.00 0.00 0.00 92 1010.6
20260905091601 15 0 0.0 0.0 0.00 0.00 0.00 93 1010.5
20260905090117 15 0 0.0 0.0 0.00 0.00 0.00 93 1010.6
20260905084557 15 0 0.0 0.0 0.00 0.00 0.00 92 1010.6
20260905083101 15 0 0.0 0.0 0.00 0.00 0.00 92 1010.5
20260905081557 15 0 0.0 0.0 0.00 0.00 0.00 92 1010.3
20260905080101 15 0 0.0 0.0 0.00 0.00 0.00 92 1010.3
20260905074611 15 0 0.0 0.0 0.00 0.00 0.00 91 1010.4
20260905073104 15 0 0.0 0.0 0.00 0.00 0.00 91 1010.4
20260905071602 15 0 0.0 0.0 0.00 0.00 0.00 91 1010.6
20260905070107 15 0 0.0 0.0 0.00 0.00 0.00 90 1010.7
20260905064610 15 0 0.0 0.0 0.00 0.00 0.00 89 1010.8
20260905063101 16 0 0.0 0.0 0.00 0.00 0.00 88 1010.7
20260905061603 16 0 0.0 0.0 0.00 0.00 0.00 88 1010.8
20260905060103 16 0 0.0 0.0 0.00 0.00 0.00 87 1010.7
20260905054559 17 0 0.0 0.0 0.00 0.00 0.00 85 1010.7
20260905053059 16 0 0.0 0.0 0.00 0.00 0.00 87 1010.8
20260905051602 17 0 0.0 0.0 0.00 0.00 0.00 86 1010.8
20260905050058 17 0 0.0 0.0 0.00 0.00 0.00 87 1010.9
20260905044601 16 0 0.0 0.0 0.00 0.00 0.00 87 1010.9
20260905043105 17 0 0.0 0.0 0.00 0.00 0.00 86 1010.8
20260905041558 17 0 0.0 0.0 0.00 0.00 0.00 86 1011.2
20260905040056 17 0 0.0 0.0 0.00 0.00 0.00 85 1011.2
20260905034550 18 0 0.0 0.0 0.00 0.00 0.00 86 1011.3
20260905033058 18 0 0.0 0.0 0.00 0.00 0.00 86 1011.4
20260905031556 18 0 0.0 0.0 0.00 0.00 0.00 86 1011.2
20260905030119 18 0 0.0 0.0 0.00 0.00 0.00 86 1010.8
20260905024604 18 0 0.0 0.0 0.00 0.00 0.00 86 1011.2
20260905023056 18 0 0.0 0.0 0.00 0.00 0.00 86 1011.1
20260905021556 18 0 0.0 0.0 0.00 0.00 0.00 86 1011.2
20260905020051 18 0 0.0 0.0 0.00 0.00 0.00 85 1011.3
20260905014604 18 0 0.0 0.0 0.00 0.00 0.00 84 1011.2
20260905013056 19 0 0.0 0.0 0.00 0.00 0.00 83 1011.1
20260905011556 20 0 0.0 0.0 0.00 0.00 0.00 84 1011.3
20260905004606 20 0 0.0 0.0 0.00 0.00 0.00 82 1011.2
20260905003055 20 0 0.0 0.0 0.00 0.00 0.00 82 1011.2
20260905001611 20 0 0.0 0.0 0.00 0.00 0.00 82 1011.1
20260905000105 20 0 0.0 0.0 0.00 0.00 0.00 80 1010.9
20260904234606 20 0 0.0 0.0 0.00 0.00 0.00 79 1010.7
20260904233056 21 0 0.0 0.0 0.00 0.00 0.00 78 1010.5
20260904231604 21 0 0.0 0.0 0.00 0.00 0.00 75 1010.3
20260904230059 21 0 0.0 0.0 0.00 0.00 0.00 77 1010.3
20260904224556 21 0 0.0 0.0 0.00 0.00 0.00 78 1010.5
20260904223100 22 0 0.0 0.0 0.00 0.00 0.00 82 1010.4
20260904221600 22 0 0.0 0.0 0.00 0.00 0.00 80 1010.2